RH
28 29 35 33 34 34 27 26 25 26 28 32 33 32 29 27 26 26 24 19 21 25 30 31 26 24 38 37 34 24 22 18 18 19 25 28 29 27 25 25 26 26 24 22 23 19 13
27 31 34 33 39 30 27 25 26 28 31 34 34 27 28 26 24 25 23 21 25 32 32 28 25 36 39 42 33 24 18 22 25 28 35 33 35 35 30 27 23 22 14 13 13 7 5
25 30 34 41 33 29 26 26 28 30 33 33 32 26 22 22 28 27 23 27 34 34 29 25 22 35 37 37 29 19 19 24 25 28 31 29 35 33 30 26 19 15 10 11 10 10 11
26 32 38 39 31 28 26 28 29 32 36 32 38 33 32 33 34 30 33 37 34 29 24 21 22 30 36 29 20 16 16 17 22 23 22 26 30 28 23 20 15 13 19 23 21 26 20
30 36 41 35 31 27 29 29 30 33 31 35 33 32 37 34 33 43 35 29 26 24 22 20 22 29 31 19 14 14 12 14 18 19 19 19 22 17 19 21 29 30 33 32 34 26 21
33 39 36 34 28 29 31 31 32 33 26 25 27 26 22 19 22 22 24 27 25 23 20 18 25 33 23 20 14 13 12 13 13 14 12 13 25 29 34 34 33 35 34 36 34 24 20
38 39 38 31 29 32 33 33 32 28 25 19 20 20 20 22 25 27 27 26 24 23 24 25 31 24 17 14 15 16 14 17 17 19 24 33 34 34 31 31 35 35 30 33 31 25 24
38 42 36 29 32 35 34 34 30 27 26 22 22 22 26 30 29 29 33 35 35 33 28 26 27 23 20 19 17 17 18 20 22 26 31 32 32 37 37 29 25 33 31 31 24 22 21
40 40 33 30 36 36 35 33 28 30 27 24 24 28 30 28 30 40 45 42 37 30 27 24 22 16 19 18 16 14 17 19 26 26 27 28 29 21 22 26 21 27 30 32 25 22 19
42 41 32 32 38 36 35 32 27 28 27 28 29 29 28 28 37 41 41 33 28 25 22 16 16 13 15 15 13 12 15 18 22 27 24 27 29 26 21 22 22 26 26 25 22 21 26
45 38 32 35 38 36 35 30 27 27 30 32 29 30 27 29 37 41 35 23 26 28 41 20 17 15 16 20 17 11 14 21 25 24 24 27 25 25 26 26 23 26 25 22 22 25 28
48 36 33 38 38 35 33 29 26 27 31 32 29 30 27 32 35 35 28 23 31 54 39 19 16 16 16 17 20 17 16 20 21 23 26 28 25 23 23 22 23 24 27 29 33 32 43
51 37 35 41 38 34 30 28 26 28 30 32 30 28 28 32 33 26 23 23 50 55 21 20 22 23 20 23 20 20 20 26 30 32 33 29 29 24 28 31 32 29 38 52 58 64 62
50 37 37 43 38 33 28 27 24 27 29 30 30 28 26 29 29 22 17 30 45 28 27 22 22 26 24 22 23 28 27 27 30 39 37 41 50 30 27 32 32 32 34 52 57 70 62
48 38 41 44 38 32 29 25 24 25 27 28 27 26 24 23 26 19 21 47 42 30 26 23 24 31 27 25 27 31 32 30 26 32 40 44 42 29 20 22 31 36 31 29 44 45 51
47 40 44 46 38 33 30 24 23 23 25 25 24 23 22 22 22 19 33 46 38 27 26 23 27 32 37 27 29 34 32 29 28 32 34 37 34 26 31 35 32 30 28 41 46 50 45
49 43 47 47 38 35 31 26 23 22 23 24 23 21 21 21 19 22 38 43 31 26 24 25 33 38 44 35 38 40 36 34 32 27 25 33 33 32 33 29 29 34 37 35 35 47 56
48 46 50 46 38 37 33 28 25 22 22 22 25 28 28 20 20 25 30 33 29 23 22 25 34 36 40 37 42 42 43 38 29 30 27 28 33 39 33 30 27 27 31 35 50 47 61
50 50 51 46 40 40 36 31 27 22 20 22 27 37 35 18 26 28 35 34 28 21 22 25 33 35 36 37 43 44 42 36 31 28 31 27 28 45 40 38 31 28 32 33 44 48 49
52 56 54 47 42 42 39 34 29 21 20 29 43 43 35 20 33 31 39 35 31 26 27 27 32 33 39 41 39 41 41 35 26 19 22 28 25 30 41 30 28 27 28 29 41 56 52
56 59 56 48 44 44 43 36 29 22 24 47 52 43 30 22 41 34 40 32 30 29 28 30 34 36 36 39 39 42 40 31 24 19 22 25 34 30 28 25 27 28 29 30 33 38 49
59 61 57 49 45 47 45 40 33 25 43 52 62 55 21 22 35 35 39 35 34 31 29 30 36 41 40 41 39 40 36 31 30 25 25 25 38 30 30 31 30 30 32 32 34 38 40
62 63 59 54 46 47 48 44 39 36 44 50 62 56 32 40 26 39 40 34 34 35 32 33 40 46 46 41 36 36 34 29 30 28 30 33 36 38 43 35 39 45 34 32 35 40 43
63 62 60 55 51 46 49 47 45 42 41 44 43 43 38 38 40 35 36 34 39 36 37 39 41 45 44 41 37 37 34 31 30 32 33 33 38 42 45 39 40 37 31 31 37 41 44
63 63 63 56 52 49 47 49 48 47 46 46 44 43 38 43 38 37 37 39 41 40 41 41 41 45 47 42 39 35 39 33 34 34 36 36 38 44 50 48 34 35 32 35 39 45 50
63 61 63 62 54 49 48 48 48 48 45 43 42 42 39 37 38 40 38 41 46 45 47 47 48 48 47 48 43 44 46 36 39 37 38 41 42 43 51 51 50 40 38 38 41 52 54
64 60 61 63 60 53 47 45 43 44 43 41 39 37 39 39 40 40 44 44 44 47 53 53 53 51 48 49 49 47 45 38 45 46 47 49 49 49 51 52 43 33 37 37 49 50 58
64 62 59 61 62 58 52 46 43 42 43 41 38 37 37 39 42 45 48 46 46 48 54 52 54 52 55 54 50 46 47 43 42 40 43 43 50 51 51 55 54 34 38 43 43 51 61
63 64 62 60 62 61 57 53 46 42 41 43 42 40 39 38 38 45 52 54 53 54 50 52 49 47 47 48 46 46 46 47 46 44 37 43 39 46 43 42 35 39 43 44 46 55 66